[TLELIST] Archives

 

[TLELIST] Current TLEs

April 18th 2023 PDT

HST 1 20580U 90037B 23107.90072144 .00007505 00000-0 40647-3 0 9995 2 20580 28.4690 309.0006 0002905 84.9241 304.6337 15.12759782612325 ISS (ZARYA) 1 25544U 98067A 23108.43397694 .00019322 00000-0 34619-3 0 9992 2 25544 51.6395 264.6579 0006032 207.9800 203.3391 15.49946793392526 CXO 1 25867U 99040B 23109.78535750 .00000756 00000-0 00000-0 0 9993 2 25867 38.2311 204.3839 9040923 256.2348 0.1021 0.37809690 12968 ...Continue Reading

[TLELIST] Current TLEs

April 17th 2023 PDT

HST 1 20580U 90037B 23106.91133583 .00007548 00000-0 40900-3 0 9999 2 20580 28.4695 315.5791 0002920 74.9301 315.8119 15.12745350612177 ISS (ZARYA) 1 25544U 98067A 23107.36543405 .00025321 00000-0 45141-3 0 9994 2 25544 51.6394 269.9491 0006143 202.1589 3.0440 15.49911273392356 CXO 1 25867U 99040B 23107.14291298 .00000918 00000-0 00000-0 0 9997 2 25867 38.2674 204.7112 9036591 255.9734 0.3530 0.37811184 12956 ...Continue Reading

[TLELIST] Current TLEs

April 17th 2023 PDT

HST 1 20580U 90037B 23106.91133583 .00007548 00000-0 40900-3 0 9999 2 20580 28.4695 315.5791 0002920 74.9301 315.8119 15.12745350612177 ISS (ZARYA) 1 25544U 98067A 23107.36543405 .00025321 00000-0 45141-3 0 9994 2 25544 51.6394 269.9491 0006143 202.1589 3.0440 15.49911273392356 CXO 1 25867U 99040B 23107.14291298 .00000918 00000-0 00000-0 0 9997 2 25867 38.2674 204.7112 9036591 255.9734 0.3530 0.37811184 12956 ...Continue Reading

[TLELIST] Current TLEs

April 16th 2023 PDT

HST 1 20580U 90037B 23105.92127911 .00007211 00000-0 39047-3 0 9994 2 20580 28.4699 322.1610 0002939 65.3447 322.9719 15.12730696612026 ISS (ZARYA) 1 25544U 98067A 23106.44441399 .00017449 00000-0 31442-3 0 9992 2 25544 51.6393 274.5104 0006267 198.4423 264.4312 15.49861092392218 CXO 1 25867U 99040B 23107.14291298 .00000918 00000-0 00000-0 0 9997 2 25867 38.2674 204.7112 9036591 255.9734 0.3530 0.37811184 12956 ...Continue Reading

[TLELIST] Current TLEs

April 15th 2023 PDT

HST 1 20580U 90037B 23104.02852064 .00005774 00000-0 31090-3 0 9990 2 20580 28.4708 334.7437 0002901 45.4909 94.7838 15.12703598611738 ISS (ZARYA) 1 25544U 98067A 23105.34385800 .00015771 00000-0 28547-3 0 9992 2 25544 51.6392 279.9617 0006307 194.6134 243.7088 15.49814820392045 CXO 1 25867U 99040B 23107.14291298 .00000918 00000-0 00000-0 0 9997 2 25867 38.2674 204.7112 9036591 255.9734 0.3530 0.37811184 12956 ...Continue Reading

[TLELIST] Current TLEs

April 14th 2023 PDT

HST 1 20580U 90037B 23104.02852064 .00005774 00000-0 31090-3 0 9990 2 20580 28.4708 334.7437 0002901 45.4909 94.7838 15.12703598612009 ISS (ZARYA) 1 25544U 98067A 23104.37742442 .00016118 00000-0 29188-3 0 9991 2 25544 51.6390 284.7500 0006343 190.9642 251.7871 15.49783077391891 CXO 1 25867U 99040B 23104.49743641 .00001070 00000-0 00000-0 0 9996 2 25867 38.2884 204.9752 9033971 255.7766 0.1324 0.37812790 12945 ...Continue Reading

[TLELIST] Current TLEs

April 13th 2023 PDT

HST 1 20580U 90037B 23102.82875517 .00005103 00000-0 27367-3 0 9992 2 20580 28.4707 342.7196 0002851 33.7456 39.9683 15.12689414611817 ISS (ZARYA) 1 25544U 98067A 23103.34329337 .00013637 00000-0 24862-3 0 9998 2 25544 51.6394 289.8725 0006247 186.5807 242.7700 15.49743662391737 CXO 1 25867U 99040B 23104.49743641 .00001070 00000-0 00000-0 0 9996 2 25867 38.2884 204.9752 9033971 255.7766 0.1324 0.37812790 12945 ...Continue Reading

[TLELIST] Current TLEs

April 12th 2023 PDT

HST 1 20580U 90037B 23101.95911569 .00005279 00000-0 28355-3 0 9995 2 20580 28.4707 348.5008 0002797 25.0833 343.4478 15.12680117611428 ISS (ZARYA) 1 25544U 98067A 23102.37720667 .00013998 00000-0 25521-3 0 9994 2 25544 51.6394 294.6563 0006461 183.5725 252.3932 15.49716390391580 CXO 1 25867U 99040B 23101.85492465 .00001109 00000-0 00000-0 0 9991 2 25867 38.3187 205.2734 9032790 255.5475 0.3043 0.37814219 12936 ...Continue Reading

[TLELIST] Current TLEs

April 11th 2023 PDT

HST 1 20580U 90037B 23101.12174791 .00005375 00000-0 28897-3 0 9990 2 20580 28.4707 354.0670 0002774 16.4861 102.9828 15.12671453611559 ISS (ZARYA) 1 25544U 98067A 23100.89387752 .00013037 00000-0 23865-3 0 9996 2 25544 51.6390 302.0001 0006416 178.7555 256.3878 15.49670139391352 CXO 1 25867U 99040B 23101.85492465 .00001109 00000-0 00000-0 0 9991 2 25867 38.3187 205.2734 9032790 255.5475 0.3043 0.37814219 12936 ...Continue Reading

[TLELIST] Current TLEs

April 10th 2023 PDT

HST 1 20580U 90037B 23099.14130491 .00005262 00000-0 28284-3 0 9992 2 20580 28.4709 7.2313 0002722 355.8066 117.5635 15.12650659610992 ISS (ZARYA) 1 25544U 98067A 23100.44398579 .00013197 00000-0 24158-3 0 9999 2 25544 51.6391 304.2285 0006396 177.0260 266.6087 15.49658709391280 CXO 1 25867U 99040B 23101.85492465 .00001109 00000-0 00000-0 0 9991 2 25867 38.3187 205.2734 9032790 255.5475 0.3043 0.37814219 12936 ...Continue Reading
  • This mailing list is a public mailing list - anyone may join or leave, at any time.
  • This mailing list is announce-only.

International Space Station (ISS) / Hubble Space Telescope (HST) / Chandra X-Ray Observatory Orbital Data via EMAIL

Privacy Policy:

Private list